Capri, Italy

4:49 PM CEST on March 27, 2017 (GMT +0200)
Capri

Weather History for LIQC - October, 2012

Change the Weather History Date:

Friday, October 5, 2012

  Actual Average (LIRN) Record (LIRN)
Temperature  
Mean Temperature 76 °F -  
Max Temperature 84 °F 73 °F 80 °F (2007)
Min Temperature 68 °F 58 °F 44 °F (2008)
Cooling Degree Days 11    
Growing Degree Days 26 (Base 50)    
Moisture  
Dew Point 68 °F    
Average Humidity 85    
Maximum Humidity 100    
Minimum Humidity 52    
Precipitation  
Precipitation 0.00 in - - ()
Sea Level Pressure  
Sea Level Pressure 30.09 in    
Wind  
Wind Speed 0 mph ()    
Max Wind Speed 0 mph    
Max Gust Speed -    
Visibility 9.4 miles    
Events      
Averages and records for this station are not official NWS values.
T = Trace of Precipitation, MM = Missing Value Source: Averaged Metar Reports

Daily Weather History Graph

Daily Weather History Graph

Search for Another Location

Airport or City:

Trip Planner

Search our weather history database for the weather conditions in past years. The results will help you decide how hot, cold, wet, or windy it might be!

Date:

Astronomy

Oct. 05, 2012 Rise Set
Actual Time 7:03 AM CEST 6:38 PM CEST
Civil Twilight 6:36 AM CEST 7:05 PM CEST
Nautical Twilight 6:05 AM CEST 7:37 PM CEST
Astronomical Twilight 5:33 AM CEST 8:08 PM CEST
Moon 9:46 PM CEST (10/5) 11:58 AM CEST (10/5)
Length of Visible Light 12h 28m
Length of Day
11h 34m
Waning Gibbous, 76% of the Moon is Illuminated
Oct 5
Waning Gibbous
Oct 8
Last Quarter
Oct 15
New
Oct 22
First Quarter
Oct 29
Full

Hourly Weather History & Observations

Time (CEST) Temp. Heat Index Dew Point Humidity Pressure Visibility Wind Dir Wind Speed Gust Speed Precip Events Conditions
2:00 AM 68 °F - 67 °F 95% 30.06 in 6 mi Calm Calm - -  
5:00 AM 70 °F - 69 °F 95% 30.06 in 6 mi Calm Calm - -  
5:55 AM 69.8 °F - 68.0 °F 94% 30.06 in - North - - N/A   Clear
6:55 AM 68.0 °F - 66.2 °F 94% 30.06 in - North - - N/A   Clear
7:55 AM 68.0 °F - 68.0 °F 100% 30.06 in - North - - N/A   Clear
8:00 AM 68 °F - 68 °F 99% 30.07 in 6 mi Calm Calm - -  
8:55 AM 68.0 °F - 68.0 °F 100% 30.09 in - North - - N/A   Clear
9:55 AM 68.0 °F - 66.2 °F 94% 30.09 in - North - - N/A   Scattered Clouds
10:55 AM 69.8 °F - 68.0 °F 94% 30.09 in - North - - N/A   Partly Cloudy
11:00 AM 70 °F - 67 °F 88% 30.09 in 12 mi Calm Calm - -   Scattered Clouds
11:55 AM 71.6 °F - 68.0 °F 88% 30.09 in - North - - N/A   Partly Cloudy
12:55 PM 75.2 °F - 68.0 °F 78% 30.12 in - North - - N/A   Scattered Clouds
1:55 PM 80.6 °F 83.9 °F 69.8 °F 70% 30.12 in - North - - N/A   Partly Cloudy
2:00 PM 80 °F - 69 °F 62% 30.11 in 12 mi Calm Calm - -  
2:55 PM 82.4 °F 87.2 °F 71.6 °F 70% 30.12 in - North - - N/A   Clear
3:55 PM 84.2 °F 89.6 °F 71.6 °F 66% 30.12 in - North - - N/A   Clear
4:55 PM 84.2 °F 87.3 °F 68.0 °F 58% 30.12 in - North - - N/A   Clear
5:00 PM 84 °F - 69 °F 52% 30.08 in 12 mi Calm Calm - -   Clear
6:55 PM 73.4 °F - 69.8 °F 88% 30.09 in - North - - N/A   Clear
7:55 PM 69.8 °F - 68.0 °F 94% 30.09 in - North - - N/A   Clear
8:00 PM 70 °F - 68 °F 93% 30.09 in 12 mi Calm Calm - -  
8:55 PM 69.8 °F - 68.0 °F 94% 30.09 in - North - - N/A   Clear
9:55 PM 69.8 °F - 68.0 °F 94% 30.09 in - North - - N/A   Clear